Location: Bush Observatory
(40.2653°N, 94.3194°W)
Time: 18:34:36
(UTC-05:00)

JAS-2 - Visible Passes

Search period start: 01 September 2014 00:00
Search period end: 11 September 2014 00:00
Orbit: 799 x 1322 km, 98.5° (Epoch: 31 August)

Date Brightness Start Highest point End Pass type
(mag) Time Alt. Az. Time Alt. Az. Time Alt. Az.
05 Sep 12.1 06:15:19 10° NE 06:19:24 21° E 06:23:45 10° SE visible
07 Sep 12.2 06:10:28 10° NE 06:14:28 20° E 06:18:43 10° SE visible
09 Sep 12.3 06:05:37 10° NE 06:09:31 19° E 06:13:40 10° SE visible
